Чиатура

Грузия     42°17′18″N   43°16′26″E
темп.,
°C
ветер,
м/с
пор.,
м/с
влажн.,
%
обл.,
%
осадки,
мм/ч
давл.,
гПа
погр.,
м
14 июня, пн
пн1401:00+13св22940 0.0 101435
04:00+12всв33870 0.0 101256
07:00+14всв34770 0.0 1012122
10:00+24вюв34440 0.0 1010659
13:00+29вюв33260 0.0 10091632
16:00+30вюв43265 0.0 10071895
19:00+28в510403 0.0 1006729
22:00+25в815400 0.0 1006867
15 июня, вт
вт1501:00+23в715470 0.0 1007784
04:00+13с119577 0.6 101275
07:00+15всв2394100 1.1 1012129
10:00+20вюв597317 1.3 1010613
13:00+28вюв44383 0.0 10081270
16:00+31зюз43312 0.0 10072236
19:00+24зюз56670 0.0 1008579
22:00+16юз119751 0.0 101115
16 июня, ср
ср1601:00+17св119544 0.0 101047
04:00+15св11923 0.0 100915
07:00+17всв01800 0.0 100970
10:00+27юв510470 0.0 10071305
13:00+31в78340 0.0 10062007
16:00+30юв36390 0.0 10051435
19:00+26ю28583 0.1 1005715
22:00+17св22868 1.3 100827
17 июня, чт
чт1701:00+16св118830 0.4 100819
04:00+15зюз359886 0.9 1012294
07:00+15юз2599100 0.4 1013412
10:00+15зюз3697100 1.0 1015529
13:00+16зюз249680 0.1 1015352
16:00+22з576393 0.3 10141293
19:00+21з686728 0.1 10161152
22:00+15зюз26883 0.1 1018148
18 июня, пт
пт1801:00+13юз119849 0.0 101913
04:00+14ююз119867 0.0 101964
07:00+15ююз119349 0.0 1019131
10:00+20зюз336827 0.0 1017812
13:00+24зюз44490 0.0 10151169
16:00+26зюз55450 0.0 10141256
19:00+23зюз56600 0.0 1015890
22:00+16юз129523 0.0 101821